#�ϑ�����,���ϕ���,���ϕ���,�ő啗��,�ő啗����������,�ő�u�ԕ���,�ő�u�ԕ�����������
#(�N����),(m/s)   ,(16����),(m/s)   ,(16����)        ,(m/s)       ,(16����)            
2020/8/27 0:01,2.5,3,2.5,3,4.2,3
2020/8/27 0:02,2.6,3,2.6,3,4.2,4
2020/8/27 0:03,2.6,3,2.7,3,3.8,4
2020/8/27 0:04,2.6,3,2.6,3,4.1,3
2020/8/27 0:05,2.5,3,2.6,3,3.7,3
2020/8/27 0:06,2.5,3,2.5,3,3.8,4
2020/8/27 0:07,2.5,3,2.5,3,3.3,2
2020/8/27 0:08,2.5,3,2.5,3,3.1,3
2020/8/27 0:09,2.6,3,2.6,3,5.1,3
2020/8/27 0:10,2.7,3,2.7,3,4.9,3
2020/8/27 0:11,2.8,3,2.8,3,4.1,3
2020/8/27 0:12,2.7,3,2.8,3,3.7,3
2020/8/27 0:13,2.7,3,2.7,3,3.8,3
2020/8/27 0:14,2.6,3,2.7,3,3.8,2
2020/8/27 0:15,2.5,2,2.6,3,2.5,2
2020/8/27 0:16,2.4,2,2.4,3,3.5,3
2020/8/27 0:17,2.4,2,2.4,3,3.2,3
2020/8/27 0:18,2.4,2,2.4,3,4.2,3
2020/8/27 0:19,2.5,2,2.5,3,5,4
2020/8/27 0:20,2.4,3,2.5,3,3.6,3
2020/8/27 0:21,2.4,3,2.4,3,4.8,3
2020/8/27 0:22,2.6,3,2.6,3,5.7,3
2020/8/27 0:23,2.5,3,2.6,3,3.2,3
2020/8/27 0:24,2.6,3,2.6,3,5.4,3
2020/8/27 0:25,2.8,3,2.8,3,4.7,3
2020/8/27 0:26,2.9,3,2.9,3,4.4,2
2020/8/27 0:27,2.9,3,2.9,3,3.7,3
2020/8/27 0:28,2.9,3,2.9,3,4.3,2
2020/8/27 0:29,3,3,3,3,4.5,3
2020/8/27 0:30,2.9,3,2.9,3,4.2,4
2020/8/27 0:31,2.9,3,3,3,3.7,3
2020/8/27 0:32,2.8,3,2.9,3,4.1,3
2020/8/27 0:33,2.9,3,2.9,3,3.5,4
2020/8/27 0:34,2.8,3,2.9,3,4.3,4
2020/8/27 0:35,2.7,3,2.8,3,2.9,4
2020/8/27 0:36,2.7,3,2.7,3,3.8,3
2020/8/27 0:37,2.8,3,2.8,3,4.4,3
2020/8/27 0:38,2.8,3,2.8,3,3.8,3
2020/8/27 0:39,2.6,3,2.8,3,3,3
2020/8/27 0:40,2.7,3,2.7,3,3.5,2
2020/8/27 0:41,2.6,3,2.6,3,3.7,3
2020/8/27 0:42,2.5,3,2.6,3,4.3,3
2020/8/27 0:43,2.5,3,2.5,3,4.2,3
2020/8/27 0:44,2.4,3,2.5,3,3.1,3
2020/8/27 0:45,2.4,3,2.4,3,4.3,3
2020/8/27 0:46,2.4,3,2.5,3,3.5,3
2020/8/27 0:47,2.4,3,2.4,3,3.3,4
2020/8/27 0:48,2.4,3,2.4,3,4.7,3
2020/8/27 0:49,2.4,3,2.4,3,4.4,3
2020/8/27 0:50,2.4,3,2.4,3,3.3,4
2020/8/27 0:51,2.4,3,2.4,3,3.6,3
2020/8/27 0:52,2.4,3,2.5,3,3,4
2020/8/27 0:53,2.5,3,2.5,3,3.7,4
2020/8/27 0:54,2.5,3,2.5,3,3.7,3
2020/8/27 0:55,2.5,3,2.5,3,3.2,3
2020/8/27 0:56,2.4,3,2.5,3,2.7,3
2020/8/27 0:57,2.3,3,2.4,3,1.4,4
2020/8/27 0:58,2.1,3,2.3,3,1.8,2
2020/8/27 0:59,2.1,3,2.1,3,3,2
2020/8/27 1:00,2.2,3,2.2,3,4.4,3
2020/8/27 1:01,2.2,3,2.2,3,4.4,3
2020/8/27 1:02,2.1,3,2.1,3,3,3
2020/8/27 1:03,2.2,3,2.2,3,4.5,3
2020/8/27 1:04,2.2,3,2.2,3,3.5,2
2020/8/27 1:05,2.1,3,2.2,3,3.6,1
2020/8/27 1:06,2.2,3,2.2,3,3.3,3
2020/8/27 1:07,2.3,3,2.3,3,2.7,2
2020/8/27 1:08,2.3,3,2.3,3,3,4
2020/8/27 1:09,2.2,3,2.3,3,2.4,3
2020/8/27 1:10,2.1,3,2.2,3,2.2,3
2020/8/27 1:11,2,2,2.1,3,3,3
2020/8/27 1:12,2,2,2,3,3.1,3
2020/8/27 1:13,1.9,2,2,3,3.2,3
2020/8/27 1:14,1.9,2,1.9,3,3.9,2
2020/8/27 1:15,1.9,2,1.9,3,4.9,2
2020/8/27 1:16,1.9,2,1.9,3,2.7,2
2020/8/27 1:17,2,3,2,3,5.2,3
2020/8/27 1:18,2.1,2,2.1,3,4.2,3
2020/8/27 1:19,2.3,3,2.3,3,4.7,4
2020/8/27 1:20,2.5,3,2.5,3,4.7,3
2020/8/27 1:21,2.6,3,2.6,3,3.5,3
2020/8/27 1:22,2.6,3,2.6,3,3.2,4
2020/8/27 1:23,2.6,3,2.6,3,3,3
2020/8/27 1:24,2.5,3,2.6,3,1.6,3
2020/8/27 1:25,2.3,3,2.5,3,2.7,4
2020/8/27 1:26,2.3,3,2.3,3,2.4,3
2020/8/27 1:27,2.2,3,2.3,3,2.6,3
2020/8/27 1:28,2,3,2.2,3,2,3
2020/8/27 1:29,1.9,3,2,3,2.2,3
2020/8/27 1:30,1.7,3,1.8,3,1.8,4
2020/8/27 1:31,1.5,3,1.7,3,2,2
2020/8/27 1:32,1.5,3,1.5,3,2.2,2
2020/8/27 1:33,1.4,3,1.5,3,2.5,1
2020/8/27 1:34,1.5,3,1.5,3,3.2,3
2020/8/27 1:35,1.6,3,1.6,3,3,4
2020/8/27 1:36,1.7,3,1.7,3,3.1,3
2020/8/27 1:37,1.7,3,1.7,3,2.5,3
2020/8/27 1:38,1.6,3,1.7,3,2.4,3
2020/8/27 1:39,1.7,3,1.7,3,3.1,3
2020/8/27 1:40,1.8,3,1.8,3,3.2,3
2020/8/27 1:41,1.9,3,1.9,3,2.7,3
2020/8/27 1:42,1.9,3,1.9,3,2.6,3
2020/8/27 1:43,1.9,3,1.9,3,2,2
2020/8/27 1:44,1.9,3,1.9,3,3.1,4
2020/8/27 1:45,1.9,3,1.9,3,2.9,3
2020/8/27 1:46,1.9,3,1.9,3,3,3
2020/8/27 1:47,1.9,3,1.9,3,2.6,3
2020/8/27 1:48,2.1,3,2.1,3,3.8,4
2020/8/27 1:49,2.1,3,2.1,3,3.2,4
2020/8/27 1:50,2.1,3,2.1,3,3.5,4
2020/8/27 1:51,2.1,3,2.1,3,3.1,3
2020/8/27 1:52,2.1,3,2.1,3,3.2,3
2020/8/27 1:53,2.2,3,2.2,3,2.9,3
2020/8/27 1:54,2.2,3,2.2,3,3,5
2020/8/27 1:55,2.1,3,2.1,3,2.7,4
2020/8/27 1:56,2.2,3,2.2,3,3.5,3
2020/8/27 1:57,2.2,3,2.2,3,3,3
2020/8/27 1:58,2.1,3,2.2,3,3.2,3
2020/8/27 1:59,2.1,3,2.1,3,3.8,4
2020/8/27 2:00,2.1,3,2.1,3,3.7,3
2020/8/27 2:01,2.1,3,2.1,3,2.7,4
2020/8/27 2:02,2,3,2.1,3,3,4
2020/8/27 2:03,2,3,2,3,2.9,2
2020/8/27 2:04,2.1,3,2.1,3,3.2,4
2020/8/27 2:05,2.1,3,2.1,3,3.5,3
2020/8/27 2:06,2.1,3,2.1,3,4.5,3
2020/8/27 2:07,2.1,3,2.1,3,3.7,3
2020/8/27 2:08,2.2,3,2.2,3,3.9,4
2020/8/27 2:09,2.2,3,2.2,3,4.4,3
2020/8/27 2:10,2.4,3,2.4,3,5.1,3
2020/8/27 2:11,2.5,3,2.5,3,3.7,2
2020/8/27 2:12,2.6,3,2.6,3,4.5,3
2020/8/27 2:13,2.7,3,2.7,3,3.9,2
2020/8/27 2:14,2.7,3,2.7,3,4.1,3
2020/8/27 2:15,2.8,3,2.8,3,4.2,3
2020/8/27 2:16,2.9,3,2.9,3,5,2
2020/8/27 2:17,2.9,3,2.9,3,4.4,3
2020/8/27 2:18,3,3,3,3,4.7,3
2020/8/27 2:19,3,3,3,3,4.2,3
2020/8/27 2:20,2.9,3,3,3,4.2,3
2020/8/27 2:21,3,3,3,3,4.8,3
2020/8/27 2:22,2.9,3,3,3,3.8,3
2020/8/27 2:23,2.9,3,2.9,3,3.6,3
2020/8/27 2:24,2.9,3,2.9,3,4.8,3
2020/8/27 2:25,2.9,3,2.9,3,4.2,4
2020/8/27 2:26,2.7,3,2.9,3,3.1,1
2020/8/27 2:27,2.7,3,2.7,3,3.7,2
2020/8/27 2:28,2.6,3,2.7,3,3.8,3
2020/8/27 2:29,2.4,3,2.6,3,3.7,3
2020/8/27 2:30,2.4,3,2.5,3,4.1,3
2020/8/27 2:31,2.3,3,2.4,3,3.1,3
2020/8/27 2:32,2.3,3,2.3,3,4.9,3
2020/8/27 2:33,2.4,3,2.4,3,3.6,4
2020/8/27 2:34,2.3,3,2.4,3,3.3,4
2020/8/27 2:35,2.2,3,2.3,3,2.6,2
2020/8/27 2:36,2.2,3,2.2,3,3.8,3
2020/8/27 2:37,2.2,3,2.2,3,3.8,2
2020/8/27 2:38,2.2,3,2.3,3,3.2,3
2020/8/27 2:39,2.2,3,2.2,3,2.9,2
2020/8/27 2:40,2.2,2,2.2,3,3.5,1
2020/8/27 2:41,2.2,2,2.2,3,3.3,2
2020/8/27 2:42,2.1,2,2.1,3,3.6,2
2020/8/27 2:43,2,2,2.1,3,2.7,2
2020/8/27 2:44,1.9,2,2,3,3.5,3
2020/8/27 2:45,2,2,2,3,2.7,2
2020/8/27 2:46,2,2,2,3,3.3,3
2020/8/27 2:47,2,3,2,3,3,3
2020/8/27 2:48,2,3,2,3,4.2,4
2020/8/27 2:49,2,3,2,3,3.3,2
2020/8/27 2:50,2.1,3,2.1,2,3.3,3
2020/8/27 2:51,2.1,3,2.1,2,3.5,3
2020/8/27 2:52,2.1,3,2.1,2,2.5,2
2020/8/27 2:53,2.1,3,2.1,3,3,3
2020/8/27 2:54,2.2,3,2.2,3,3.6,3
2020/8/27 2:55,2.1,3,2.2,3,2.5,2
2020/8/27 2:56,2.1,3,2.1,3,3.3,2
2020/8/27 2:57,2.1,2,2.1,3,3.3,3
2020/8/27 2:58,2.1,2,2.2,3,2.7,2
2020/8/27 2:59,1.9,2,2.1,3,2.1,2
2020/8/27 3:00,1.9,2,1.9,3,2.6,3
2020/8/27 3:01,1.8,2,1.8,3,2.7,2
2020/8/27 3:02,1.8,2,1.8,3,3.1,1
2020/8/27 3:03,1.8,2,1.8,3,2.7,3
2020/8/27 3:04,1.7,2,1.8,3,2.6,3
2020/8/27 3:05,1.8,2,1.8,2,2.6,2
2020/8/27 3:06,1.8,2,1.8,2,3.3,3
2020/8/27 3:07,1.8,3,1.8,2,3.1,4
2020/8/27 3:08,1.8,3,1.8,2,2.7,3
2020/8/27 3:09,1.9,3,1.9,2,2.9,3
2020/8/27 3:10,1.9,3,1.9,3,3,2
2020/8/27 3:11,2,3,2,3,3,3
2020/8/27 3:12,2.1,3,2.1,3,3.1,2
2020/8/27 3:13,2.1,3,2.2,3,3.6,3
2020/8/27 3:14,2.1,3,2.1,3,2.9,4
2020/8/27 3:15,2.3,3,2.3,3,5.1,3
2020/8/27 3:16,2.4,3,2.4,3,4.5,4
2020/8/27 3:17,2.5,3,2.5,3,3.9,3
2020/8/27 3:18,2.5,3,2.5,3,3.3,3
2020/8/27 3:19,2.5,3,2.5,3,4.1,3
2020/8/27 3:20,2.5,3,2.6,3,3.3,3
2020/8/27 3:21,2.5,3,2.5,3,3.8,3
2020/8/27 3:22,2.6,3,2.6,3,3.8,3
2020/8/27 3:23,2.5,3,2.6,3,3.5,3
2020/8/27 3:24,2.5,3,2.5,3,3.8,1
2020/8/27 3:25,2.5,3,2.5,3,3.8,3
2020/8/27 3:26,2.4,3,2.5,3,4.1,3
2020/8/27 3:27,2.3,3,2.4,3,3.6,2
2020/8/27 3:28,2.4,3,2.4,3,3.8,3
2020/8/27 3:29,2.4,3,2.4,3,3.6,3
2020/8/27 3:30,2.4,3,2.4,3,3.7,2
2020/8/27 3:31,2.4,3,2.4,3,3.6,3
2020/8/27 3:32,2.5,3,2.5,3,4.4,3
2020/8/27 3:33,2.5,3,2.5,3,4.9,3
2020/8/27 3:34,2.7,3,2.7,3,4.9,3
2020/8/27 3:35,2.8,3,2.8,3,4.2,3
2020/8/27 3:36,2.8,3,2.8,3,4.4,2
2020/8/27 3:37,2.8,3,2.8,3,4.1,3
2020/8/27 3:38,2.8,3,2.8,3,3.9,2
2020/8/27 3:39,2.8,3,2.8,3,4.5,3
2020/8/27 3:40,2.7,3,2.8,3,3.5,3
2020/8/27 3:41,2.7,3,2.7,3,4.1,3
2020/8/27 3:42,2.8,3,2.8,3,6.2,3
2020/8/27 3:43,2.9,3,2.9,3,5.4,2
2020/8/27 3:44,2.7,2,2.9,3,3.7,3
2020/8/27 3:45,2.7,2,2.7,3,4.8,2
2020/8/27 3:46,2.6,2,2.7,3,3.9,3
2020/8/27 3:47,2.7,3,2.7,3,5.1,3
2020/8/27 3:48,2.8,3,2.8,3,3.5,4
2020/8/27 3:49,2.7,3,2.8,3,4.3,3
2020/8/27 3:50,2.8,3,2.8,3,3.5,3
2020/8/27 3:51,2.8,3,2.8,3,3.3,2
2020/8/27 3:52,2.6,3,2.8,3,3.6,3
2020/8/27 3:53,2.3,3,2.6,3,2.1,2
2020/8/27 3:54,2.3,3,2.3,3,3.3,2
2020/8/27 3:55,2.2,3,2.3,3,3.5,1
2020/8/27 3:56,2.2,3,2.2,3,3.6,2
2020/8/27 3:57,2.1,2,2.2,3,3.8,2
2020/8/27 3:58,2.1,2,2.1,3,3.5,3
2020/8/27 3:59,2.2,2,2.2,3,4.3,4
2020/8/27 4:00,2.3,2,2.3,3,4.8,4
2020/8/27 4:01,2.2,2,2.3,3,3.5,3
2020/8/27 4:02,2.3,2,2.3,3,4.2,3
2020/8/27 4:03,2.4,2,2.4,2,4.4,3
2020/8/27 4:04,2.6,2,2.6,2,4.7,2
2020/8/27 4:05,2.7,2,2.7,2,4.9,3
2020/8/27 4:06,2.8,2,2.8,2,3.9,3
2020/8/27 4:07,2.9,2,2.9,2,3.7,3
2020/8/27 4:08,2.9,2,2.9,2,4.7,2
2020/8/27 4:09,2.9,2,2.9,2,5.1,3
2020/8/27 4:10,2.8,2,2.9,2,5.4,2
2020/8/27 4:11,2.9,2,2.9,2,5.2,3
2020/8/27 4:12,3,2,3,2,6,3
2020/8/27 4:13,3,2,3.1,2,4.2,2
2020/8/27 4:14,3,2,3,2,4.4,3
2020/8/27 4:15,3,3,3,2,4.4,3
2020/8/27 4:16,3,3,3,2,3.9,3
2020/8/27 4:17,3.1,3,3.1,2,6.5,3
2020/8/27 4:18,3,3,3.1,2,3.7,3
2020/8/27 4:19,2.9,2,3,2,3.2,3
2020/8/27 4:20,3.1,3,3.1,2,5.7,2
2020/8/27 4:21,3,3,3.1,2,4.2,2
2020/8/27 4:22,2.9,2,3,2,6,2
2020/8/27 4:23,3.1,3,3.1,2,4.9,3
2020/8/27 4:24,3.1,3,3.1,2,4.7,2
2020/8/27 4:25,3,3,3.1,2,4.1,2
2020/8/27 4:26,3.1,3,3.1,2,4.4,1
2020/8/27 4:27,3,3,3.1,3,3.8,3
2020/8/27 4:28,2.9,3,3,3,3.9,3
2020/8/27 4:29,3,3,3,3,4.1,3
2020/8/27 4:30,2.9,3,3,3,3.9,3
2020/8/27 4:31,2.9,3,2.9,3,4.5,3
2020/8/27 4:32,3,3,3,3,5.5,3
2020/8/27 4:33,2.9,3,3,3,4.2,3
2020/8/27 4:34,3,3,3,3,6.3,3
2020/8/27 4:35,3.1,3,3.1,3,5.2,3
2020/8/27 4:36,3.1,3,3.1,3,3.8,4
2020/8/27 4:37,3,3,3.1,3,3.8,3
2020/8/27 4:38,3.1,3,3.2,3,3.8,3
2020/8/27 4:39,3,3,3.1,3,4.2,3
2020/8/27 4:40,2.9,3,3,3,3.8,3
2020/8/27 4:41,2.8,3,2.8,3,3.5,5
2020/8/27 4:42,2.6,3,2.8,3,3.5,4
2020/8/27 4:43,2.5,3,2.6,3,2.2,4
2020/8/27 4:44,2.2,3,2.5,3,3.2,3
2020/8/27 4:45,2.1,3,2.1,3,3.1,4
2020/8/27 4:46,2.2,3,2.2,3,5.5,3
2020/8/27 4:47,2.3,3,2.3,3,4.4,3
2020/8/27 4:48,2.2,3,2.3,3,3.1,3
2020/8/27 4:49,2.4,3,2.4,3,3.7,2
2020/8/27 4:50,2.4,3,2.4,3,3.6,3
2020/8/27 4:51,2.5,3,2.5,3,3.8,3
2020/8/27 4:52,2.4,3,2.4,3,2.5,2
2020/8/27 4:53,2.5,3,2.5,3,5.2,3
2020/8/27 4:54,2.6,3,2.6,3,4.3,5
2020/8/27 4:55,2.7,3,2.7,3,4.5,2
2020/8/27 4:56,2.7,3,2.7,3,4.7,4
2020/8/27 4:57,2.7,3,2.7,3,5,3
2020/8/27 4:58,2.8,3,2.8,3,3.8,3
2020/8/27 4:59,2.7,3,2.8,3,2.9,3
2020/8/27 5:00,2.7,3,2.8,3,3.5,3
2020/8/27 5:01,2.7,3,2.7,3,2.7,3
2020/8/27 5:02,2.8,3,2.8,3,4.2,3
2020/8/27 5:03,2.8,3,2.8,3,4.2,3
2020/8/27 5:04,2.7,3,2.8,3,3.5,3
2020/8/27 5:05,2.7,3,2.8,3,3.8,2
2020/8/27 5:06,2.6,3,2.7,3,4.1,2
2020/8/27 5:07,2.4,3,2.6,3,3.5,1
2020/8/27 5:08,2.3,3,2.4,3,3.9,3
2020/8/27 5:09,2.4,3,2.4,3,3.7,3
2020/8/27 5:10,2.4,3,2.4,3,3.7,3
2020/8/27 5:11,2.3,3,2.4,3,2.1,1
2020/8/27 5:12,2.2,3,2.3,3,3.5,3
2020/8/27 5:13,2.2,3,2.2,3,3.1,4
2020/8/27 5:14,2.3,3,2.3,3,3.1,5
2020/8/27 5:15,2.2,3,2.3,3,4.1,3
2020/8/27 5:16,2.2,3,2.3,3,3.5,2
2020/8/27 5:17,2.3,3,2.3,3,4.5,2
2020/8/27 5:18,2.2,3,2.3,3,3.2,2
2020/8/27 5:19,2.1,3,2.2,3,3.2,4
2020/8/27 5:20,2.2,3,2.2,3,4.1,3
2020/8/27 5:21,2.4,3,2.4,3,3.8,3
2020/8/27 5:22,2.3,3,2.4,3,2.6,4
2020/8/27 5:23,2.3,3,2.3,3,2.9,2
2020/8/27 5:24,2.3,3,2.3,3,2.4,3
2020/8/27 5:25,2.2,3,2.3,3,3,3
2020/8/27 5:26,2.2,3,2.2,3,2.1,3
2020/8/27 5:27,2,3,2.2,3,2.7,2
2020/8/27 5:28,2,3,2,3,2.6,2
2020/8/27 5:29,2,3,2,3,3.9,2
2020/8/27 5:30,2.1,3,2.1,3,3.9,3
2020/8/27 5:31,2,3,2.1,3,3.7,3
2020/8/27 5:32,2.1,3,2.1,3,4.9,3
2020/8/27 5:33,2.2,3,2.2,3,4.7,4
2020/8/27 5:34,2.2,3,2.2,3,4.4,4
2020/8/27 5:35,2.3,3,2.3,3,4.2,3
2020/8/27 5:36,2.4,3,2.4,3,4.3,5
2020/8/27 5:37,2.5,3,2.5,3,3.9,4
2020/8/27 5:38,2.4,3,2.4,3,1.6,1
2020/8/27 5:39,2.4,3,2.4,3,2.9,2
2020/8/27 5:40,2.3,3,2.4,3,3.2,3
2020/8/27 5:41,2.2,3,2.2,3,2.9,1
2020/8/27 5:42,2.2,3,2.2,3,3.7,2
2020/8/27 5:43,2.1,3,2.2,3,3.7,4
2020/8/27 5:44,2.1,3,2.1,3,3.3,4
2020/8/27 5:45,2,3,2.1,3,3.3,6
2020/8/27 5:46,1.9,3,2,3,2.6,4
2020/8/27 5:47,1.9,3,1.9,3,2.2,3
2020/8/27 5:48,1.9,3,1.9,3,2,3
2020/8/27 5:49,1.8,3,1.9,3,2.2,2
2020/8/27 5:50,1.8,3,1.8,3,3,3
2020/8/27 5:51,1.7,3,1.8,3,2.7,3
2020/8/27 5:52,1.6,3,1.7,3,2.1,3
2020/8/27 5:53,1.6,3,1.6,3,2.5,4
2020/8/27 5:54,1.6,3,1.6,3,2.4,3
2020/8/27 5:55,1.6,3,1.6,3,2.6,3
2020/8/27 5:56,1.6,3,1.6,3,2.9,3
2020/8/27 5:57,1.7,2,1.7,3,3.6,2
2020/8/27 5:58,1.8,3,1.8,3,3,2
2020/8/27 5:59,1.8,3,1.8,3,2.9,4
2020/8/27 6:00,1.8,3,1.8,3,2.1,3
2020/8/27 6:01,1.8,3,1.8,3,2.2,3
2020/8/27 6:02,1.9,3,1.9,3,2.2,3
2020/8/27 6:03,1.8,3,1.9,3,2.2,3
2020/8/27 6:04,1.8,3,1.8,3,2,2
2020/8/27 6:05,1.8,3,1.8,3,2.5,3
2020/8/27 6:06,1.7,3,1.8,3,2,2
2020/8/27 6:07,1.5,2,1.6,3,1.9,2
2020/8/27 6:08,1.5,2,1.5,3,4.1,3
2020/8/27 6:09,1.6,2,1.6,3,4.2,2
2020/8/27 6:10,1.6,2,1.7,3,3,3
2020/8/27 6:11,1.7,2,1.7,3,3,3
2020/8/27 6:12,1.7,2,1.8,3,3,3
2020/8/27 6:13,1.7,2,1.7,3,2.2,3
2020/8/27 6:14,1.6,2,1.7,3,1.5,2
2020/8/27 6:15,1.6,2,1.6,3,2.4,3
2020/8/27 6:16,1.6,2,1.7,2,1.8,2
2020/8/27 6:17,1.6,2,1.6,2,1.5,2
2020/8/27 6:18,1.5,2,1.6,2,1.8,2
2020/8/27 6:19,1.5,2,1.5,2,3.5,4
2020/8/27 6:20,1.5,2,1.5,2,2.9,3
2020/8/27 6:21,1.6,2,1.6,2,4.2,3
2020/8/27 6:22,1.7,2,1.7,2,3.8,3
2020/8/27 6:23,1.8,2,1.8,2,3.3,3
2020/8/27 6:24,2,2,2,3,3.2,3
2020/8/27 6:25,2,3,2,3,3.1,3
2020/8/27 6:26,2.1,3,2.1,3,2,2
2020/8/27 6:27,2.1,3,2.1,3,2.1,3
2020/8/27 6:28,2.2,3,2.2,3,3,2
2020/8/27 6:29,2.1,3,2.2,3,2.5,3
2020/8/27 6:30,2.2,3,2.2,3,3.7,3
2020/8/27 6:31,2.2,3,2.2,3,3.9,2
2020/8/27 6:32,2.1,2,2.2,3,3.5,2
2020/8/27 6:33,2.1,2,2.1,3,3.2,3
2020/8/27 6:34,2,2,2.1,3,3.1,3
2020/8/27 6:35,2,2,2,3,4.2,3
2020/8/27 6:36,2.1,2,2.1,3,3.7,2
2020/8/27 6:37,2.2,2,2.2,3,4.2,3
2020/8/27 6:38,2.3,2,2.3,2,3.6,3
2020/8/27 6:39,2.3,2,2.3,2,3.2,3
2020/8/27 6:40,2.1,2,2.3,2,2.1,2
2020/8/27 6:41,2,2,2.1,2,3,3
2020/8/27 6:42,2,2,2,2,3.3,2
2020/8/27 6:43,1.9,2,2,2,2.9,1
2020/8/27 6:44,1.9,2,1.9,2,2.1,2
2020/8/27 6:45,1.8,2,1.9,2,2.1,4
2020/8/27 6:46,1.7,2,1.8,2,3,3
2020/8/27 6:47,1.7,2,1.7,2,3.8,2
2020/8/27 6:48,1.8,2,1.8,2,3.6,3
2020/8/27 6:49,1.9,2,1.9,2,3.7,3
2020/8/27 6:50,2,3,2,2,3.3,3
2020/8/27 6:51,2,3,2,2,2.5,3
2020/8/27 6:52,2.1,2,2.1,3,3.5,1
2020/8/27 6:53,2,3,2.1,3,3,4
2020/8/27 6:54,2.1,3,2.1,3,2.5,3
2020/8/27 6:55,2.1,3,2.1,3,2.5,4
2020/8/27 6:56,2.1,3,2.1,3,2.6,4
2020/8/27 6:57,2,3,2.1,3,2.1,3
2020/8/27 6:58,1.9,3,2,3,2,3
2020/8/27 6:59,1.7,3,1.9,3,1.9,1
2020/8/27 7:00,1.7,3,1.7,3,3.3,2
2020/8/27 7:01,1.7,3,1.7,3,4.1,2
2020/8/27 7:02,1.8,3,1.8,2,3.9,2
2020/8/27 7:03,1.9,3,1.9,3,3.5,2
2020/8/27 7:04,2,3,2,3,3.7,5
2020/8/27 7:05,2.1,3,2.1,3,3.5,4
2020/8/27 7:06,2.1,3,2.1,3,2.6,3
2020/8/27 7:07,2,3,2.1,3,1.6,3
2020/8/27 7:08,2,3,2,3,2.5,4
2020/8/27 7:09,2,3,2,3,1.5,4
2020/8/27 7:10,2,3,2.1,3,2.2,5
2020/8/27 7:11,1.8,4,2,3,1.6,5
2020/8/27 7:12,1.6,4,1.8,3,1.4,4
2020/8/27 7:13,1.5,4,1.6,3,1.1,5
2020/8/27 7:14,1.3,4,1.5,3,1.8,2
2020/8/27 7:15,1.2,4,1.3,3,1.8,2
2020/8/27 7:16,1.2,4,1.2,3,1.6,3
2020/8/27 7:17,1.2,4,1.2,3,2.5,3
2020/8/27 7:18,1.2,4,1.2,3,2.7,3
2020/8/27 7:19,1.2,4,1.2,3,2.5,2
2020/8/27 7:20,1.3,4,1.3,3,3.7,3
2020/8/27 7:21,1.5,3,1.5,4,4.3,4
2020/8/27 7:22,1.6,3,1.6,4,3,4
2020/8/27 7:23,1.7,3,1.7,3,3.8,5
2020/8/27 7:24,1.9,3,1.9,3,2.4,5
2020/8/27 7:25,1.9,4,1.9,3,2.2,5
2020/8/27 7:26,1.9,3,1.9,3,1.9,2
2020/8/27 7:27,1.8,3,1.9,3,2.1,4
2020/8/27 7:28,1.8,4,1.8,3,2.6,3
2020/8/27 7:29,2,4,2,4,3.9,5
2020/8/27 7:30,1.9,4,2,4,3.1,4
2020/8/27 7:31,1.9,4,1.9,4,3.7,5
2020/8/27 7:32,1.9,4,1.9,4,3,5
2020/8/27 7:33,1.9,4,1.9,4,3.3,3
2020/8/27 7:34,2,4,2,4,4.4,3
2020/8/27 7:35,2.1,4,2.1,4,3.9,3
2020/8/27 7:36,2.1,4,2.1,4,3,1
2020/8/27 7:37,2.2,4,2.2,4,3.3,3
2020/8/27 7:38,2.2,3,2.2,4,3,2
2020/8/27 7:39,2.1,3,2.2,4,2.6,4
2020/8/27 7:40,2.1,3,2.1,4,4.5,3
2020/8/27 7:41,2.1,3,2.1,4,3.6,5
2020/8/27 7:42,2.1,3,2.1,4,3.1,3
2020/8/27 7:43,2,3,2.1,4,1.9,3
2020/8/27 7:44,1.9,3,2,4,1.9,5
2020/8/27 7:45,1.9,3,1.9,4,3.7,5
2020/8/27 7:46,1.9,3,1.9,4,3.3,4
2020/8/27 7:47,1.9,3,2,4,2.4,4
2020/8/27 7:48,2,4,2,3,3.3,4
2020/8/27 7:49,2,4,2,3,2.9,5
2020/8/27 7:50,2,4,2,3,3.5,6
2020/8/27 7:51,1.9,4,2,3,3.7,6
2020/8/27 7:52,1.9,4,1.9,3,2.6,5
2020/8/27 7:53,1.9,5,1.9,3,2.7,4
2020/8/27 7:54,1.9,5,1.9,3,3,3
2020/8/27 7:55,1.9,5,2,3,3.2,7
2020/8/27 7:56,1.9,5,1.9,3,2.2,7
2020/8/27 7:57,1.8,5,1.9,4,1.8,7
2020/8/27 7:58,1.8,5,1.8,4,3.5,4
2020/8/27 7:59,2,5,2,4,4.7,3
2020/8/27 8:00,2,5,2.1,5,4.5,3
2020/8/27 8:01,1.9,5,2,5,2.7,4
2020/8/27 8:02,1.9,4,2,5,3.5,3
2020/8/27 8:03,2.1,4,2.1,5,4.2,4
2020/8/27 8:04,2.1,4,2.1,5,4.2,4
2020/8/27 8:05,2.2,4,2.2,4,3.9,4
2020/8/27 8:06,2.3,4,2.3,4,4.9,4
2020/8/27 8:07,2.6,4,2.6,4,6.1,5
2020/8/27 8:08,2.7,4,2.7,4,4.4,5
2020/8/27 8:09,2.8,4,2.8,4,4.5,5
2020/8/27 8:10,2.8,4,2.8,4,3.5,4
2020/8/27 8:11,2.8,4,2.8,4,3,5
2020/8/27 8:12,2.7,4,2.8,4,2.2,5
2020/8/27 8:13,2.6,4,2.7,4,2.5,6
2020/8/27 8:14,2.7,5,2.7,4,5,5
2020/8/27 8:15,2.7,5,2.7,4,3.5,6
2020/8/27 8:16,2.7,5,2.7,4,4.4,5
2020/8/27 8:17,2.6,5,2.7,4,3.5,4
2020/8/27 8:18,2.3,5,2.5,4,2.9,3
2020/8/27 8:19,2.1,5,2.3,4,2.4,5
2020/8/27 8:20,2.1,5,2.1,4,2.9,6
2020/8/27 8:21,2.1,5,2.1,4,3,7
2020/8/27 8:22,2.1,5,2.1,4,3,7
2020/8/27 8:23,2.2,6,2.2,4,2.9,6
2020/8/27 8:24,1.9,6,2.2,5,2.4,8
2020/8/27 8:25,1.8,6,1.9,5,2.5,6
2020/8/27 8:26,1.6,6,1.8,5,1.6,6
2020/8/27 8:27,1.5,6,1.6,5,2.5,6
2020/8/27 8:28,1.5,6,1.5,5,2.5,6
2020/8/27 8:29,1.5,6,1.5,6,2.6,5
2020/8/27 8:30,1.6,5,1.6,6,4.2,4
2020/8/27 8:31,1.7,5,1.7,6,5.1,5
2020/8/27 8:32,1.7,5,1.7,6,2.6,6
2020/8/27 8:33,1.7,5,1.7,6,3,5
2020/8/27 8:34,1.8,5,1.8,6,5,5
2020/8/27 8:35,2.1,5,2.1,5,4.8,4
2020/8/27 8:36,2.3,5,2.3,5,5.1,5
2020/8/27 8:37,2.5,5,2.5,5,3.8,5
2020/8/27 8:38,2.4,5,2.5,5,2.5,5
2020/8/27 8:39,2.4,5,2.4,5,3.3,6
2020/8/27 8:40,2.4,5,2.5,5,4.8,6
2020/8/27 8:41,2.6,5,2.6,5,4.5,6
2020/8/27 8:42,2.7,5,2.7,5,4.1,6
2020/8/27 8:43,2.8,5,2.8,5,4.3,6
2020/8/27 8:44,2.8,5,2.8,5,3.6,7
2020/8/27 8:45,2.6,5,2.7,5,3.3,6
2020/8/27 8:46,2.4,5,2.6,5,3.9,5
2020/8/27 8:47,2.4,5,2.4,5,3.5,3
2020/8/27 8:48,2.4,5,2.4,5,3,4
2020/8/27 8:49,2.6,5,2.6,5,5.7,5
2020/8/27 8:50,2.6,5,2.6,5,4.9,3
2020/8/27 8:51,2.5,5,2.6,5,4.8,4
2020/8/27 8:52,2.5,4,2.5,5,3.9,5
2020/8/27 8:53,2.5,4,2.5,5,4.4,6
2020/8/27 8:54,2.5,4,2.5,5,3.9,5
2020/8/27 8:55,2.5,4,2.5,5,3.2,5
2020/8/27 8:56,2.4,4,2.4,5,2.2,2
2020/8/27 8:57,2.5,4,2.5,5,3.7,5
2020/8/27 8:58,2.6,4,2.6,5,3,5
2020/8/27 8:59,2.5,4,2.6,5,5.2,6
2020/8/27 9:00,2.5,5,2.5,5,4.3,6
2020/8/27 9:01,2.3,5,2.4,4,2.2,6
2020/8/27 9:02,2.1,5,2.3,4,2.1,8
2020/8/27 9:03,2.1,5,2.1,4,4.8,6
2020/8/27 9:04,2.2,6,2.2,4,4.9,5
2020/8/27 9:05,2.3,6,2.3,4,4.5,5
2020/8/27 9:06,2.4,6,2.4,4,4.1,7
2020/8/27 9:07,2.5,6,2.5,4,5.1,6
2020/8/27 9:08,2.5,6,2.5,4,4.2,6
2020/8/27 9:09,2.6,6,2.6,6,4.7,7
2020/8/27 9:10,2.6,7,2.6,6,5.1,8
2020/8/27 9:11,2.8,6,2.8,6,4.1,6
2020/8/27 9:12,2.9,6,2.9,6,3.2,7
2020/8/27 9:13,2.7,6,2.9,6,2,6
2020/8/27 9:14,2.5,7,2.7,6,2,9
2020/8/27 9:15,2.4,7,2.5,6,2.6,9
2020/8/27 9:16,2.3,7,2.4,6,2.4,9
2020/8/27 9:17,2.1,7,2.3,6,2.5,9
2020/8/27 9:18,2,7,2.1,6,2.5,8
2020/8/27 9:19,1.8,7,1.9,6,3.2,9
2020/8/27 9:20,1.6,8,1.8,6,2.7,8
2020/8/27 9:21,1.5,8,1.6,6,3.1,8
2020/8/27 9:22,1.5,8,1.5,6,3.5,7
2020/8/27 9:23,1.5,8,1.5,6,3.6,9
2020/8/27 9:24,1.6,8,1.7,7,4.4,8
2020/8/27 9:25,1.7,8,1.7,7,3.1,8
2020/8/27 9:26,1.8,8,1.8,7,3,8
2020/8/27 9:27,1.7,8,1.8,7,2,8
2020/8/27 9:28,1.7,8,1.7,7,2.9,8
2020/8/27 9:29,1.7,8,1.7,7,2.7,8
2020/8/27 9:30,1.8,8,1.8,8,2.7,6
2020/8/27 9:31,1.8,7,1.8,8,2.9,4
2020/8/27 9:32,1.7,7,1.8,8,1.4,4
2020/8/27 9:33,1.6,7,1.7,8,2,9
2020/8/27 9:34,1.5,7,1.6,8,2.7,3
2020/8/27 9:35,1.4,6,1.5,8,3.5,4
2020/8/27 9:36,1.4,6,1.4,8,2.5,4
2020/8/27 9:37,1.6,6,1.6,8,4.9,6
2020/8/27 9:38,1.7,5,1.7,8,3.5,6
2020/8/27 9:39,1.7,5,1.7,8,3,7
2020/8/27 9:40,1.8,5,1.8,8,3.8,7
2020/8/27 9:41,1.9,5,1.9,5,3.6,7
2020/8/27 9:42,2.1,6,2.1,6,3.3,5
2020/8/27 9:43,2.3,6,2.3,6,3.8,6
2020/8/27 9:44,2.3,6,2.3,6,2.7,5
2020/8/27 9:45,2.3,6,2.3,6,2.7,6
2020/8/27 9:46,2.2,6,2.3,6,1.8,8
2020/8/27 9:47,2,6,2.2,6,3.2,4
2020/8/27 9:48,2.1,6,2.1,6,4.2,6
2020/8/27 9:49,2.2,6,2.2,6,3.8,6
2020/8/27 9:50,2,6,2.2,6,2.4,6
2020/8/27 9:51,2,6,2,6,3.7,5
2020/8/27 9:52,2,6,2,6,4.5,6
2020/8/27 9:53,2.1,6,2.1,6,6.4,5
2020/8/27 9:54,2.4,6,2.4,6,6.2,5
2020/8/27 9:55,2.7,5,2.7,5,5.4,4
2020/8/27 9:56,2.9,5,2.9,5,4.3,6
2020/8/27 9:57,3.1,6,3.1,6,5.4,7
2020/8/27 9:58,3.2,6,3.2,6,4.7,6
2020/8/27 9:59,3.2,6,3.2,6,5.6,7
2020/8/27 10:00,3.5,6,3.5,6,6.5,7
2020/8/27 10:01,3.7,6,3.7,6,6.7,8
2020/8/27 10:02,4,6,4,6,6.8,8
2020/8/27 10:03,4,7,4,6,6.2,7
2020/8/27 10:04,4,7,4,6,7.2,8
2020/8/27 10:05,4.1,7,4.1,7,7.8,8
2020/8/27 10:06,4.1,7,4.1,7,6.8,8
2020/8/27 10:07,4.2,8,4.2,8,7,8
2020/8/27 10:08,4.1,8,4.2,8,4.1,8
2020/8/27 10:09,4.2,8,4.2,8,4.7,7
2020/8/27 10:10,4,8,4.2,8,4.8,8
2020/8/27 10:11,3.9,8,4,8,5,7
2020/8/27 10:12,3.8,8,3.9,8,4.3,6
2020/8/27 10:13,3.6,7,3.7,8,4.3,7
2020/8/27 10:14,3.3,7,3.6,8,3.3,8
2020/8/27 10:15,3,7,3.2,8,2.9,8
2020/8/27 10:16,2.8,7,2.9,8,3.6,9
2020/8/27 10:17,2.5,7,2.7,8,3.5,8
2020/8/27 10:18,2.4,7,2.5,8,3.7,9
2020/8/27 10:19,2.3,7,2.4,8,4.5,10
2020/8/27 10:20,2.4,7,2.4,8,5,8
2020/8/27 10:21,2.4,8,2.4,8,7.1,8
2020/8/27 10:22,2.3,8,2.4,7,4.8,8
2020/8/27 10:23,2.4,8,2.4,7,5.1,9
2020/8/27 10:24,2.4,8,2.4,7,3.2,7
2020/8/27 10:25,2.3,8,2.4,7,2.4,5
2020/8/27 10:26,2.3,8,2.4,7,3.1,8
2020/8/27 10:27,2.5,8,2.5,7,5.7,7
2020/8/27 10:28,2.6,8,2.6,8,5.5,9
2020/8/27 10:29,2.4,8,2.6,8,2.4,8
2020/8/27 10:30,2.4,8,2.5,8,4.1,9
2020/8/27 10:31,2.1,8,2.3,8,2.6,9
2020/8/27 10:32,2.1,8,2.1,8,5.6,8
2020/8/27 10:33,2.1,8,2.1,8,3.7,7
2020/8/27 10:34,2.2,7,2.2,8,4.2,5
2020/8/27 10:35,2.3,7,2.3,8,3.7,5
2020/8/27 10:36,2.4,7,2.4,8,3.9,4
2020/8/27 10:37,2.3,6,2.4,8,4.7,5
2020/8/27 10:38,2.4,6,2.4,8,5,6
2020/8/27 10:39,2.6,6,2.6,6,4.4,6
2020/8/27 10:40,2.7,6,2.7,6,4.3,7
2020/8/27 10:41,2.9,6,2.9,6,4.2,6
2020/8/27 10:42,2.7,6,2.9,6,3.9,7
2020/8/27 10:43,2.7,6,2.7,6,2.9,5
2020/8/27 10:44,2.6,6,2.7,6,2.7,5
2020/8/27 10:45,2.7,6,2.7,6,4.1,6
2020/8/27 10:46,2.6,6,2.7,6,3.6,6
2020/8/27 10:47,2.6,6,2.6,6,4.1,7
2020/8/27 10:48,2.5,6,2.5,6,4.9,6
2020/8/27 10:49,2.4,6,2.5,6,3.9,9
2020/8/27 10:50,2.3,6,2.4,6,3.2,9
2020/8/27 10:51,2.1,7,2.3,6,1.9,9
2020/8/27 10:52,2.1,7,2.1,6,3.3,7
2020/8/27 10:53,2.2,7,2.2,6,5.6,9
2020/8/27 10:54,2.2,7,2.2,6,4.5,7
2020/8/27 10:55,2.1,8,2.2,6,4.5,8
2020/8/27 10:56,2.2,8,2.2,6,5.4,7
2020/8/27 10:57,2.3,8,2.3,6,4.5,7
2020/8/27 10:58,2.5,8,2.5,6,4.8,6
2020/8/27 10:59,2.5,8,2.5,8,4.2,6
2020/8/27 11:00,2.7,7,2.7,7,4.9,6
2020/8/27 11:01,2.7,7,2.7,7,2.4,6
2020/8/27 11:02,2.7,7,2.7,7,2.7,6
2020/8/27 11:03,2.6,7,2.7,7,3.6,6
2020/8/27 11:04,2.6,7,2.6,7,4.5,6
2020/8/27 11:05,2.6,6,2.7,7,4.2,8
2020/8/27 11:06,2.6,6,2.6,7,4.3,6
2020/8/27 11:07,2.5,6,2.6,7,3.6,6
2020/8/27 11:08,2.3,6,2.5,7,3,6
2020/8/27 11:09,2.4,6,2.4,7,6.2,8
2020/8/27 11:10,2.6,7,2.6,7,6.7,8
2020/8/27 11:11,2.9,7,2.9,7,6.2,8
2020/8/27 11:12,3.2,7,3.2,7,6.5,9
2020/8/27 11:13,3.5,7,3.5,7,6.5,8
2020/8/27 11:14,3.6,7,3.6,7,6.9,8
2020/8/27 11:15,3.7,8,3.7,7,4.9,8
2020/8/27 11:16,3.8,8,3.8,8,4.8,7
2020/8/27 11:17,3.8,8,3.8,8,4.8,7
2020/8/27 11:18,3.8,8,3.8,8,3.6,7
2020/8/27 11:19,3.8,8,3.8,8,5.4,6
2020/8/27 11:20,3.7,7,3.8,8,6.7,6
2020/8/27 11:21,3.4,7,3.7,8,4.2,7
2020/8/27 11:22,3,7,3.4,8,2.7,8
2020/8/27 11:23,2.8,7,3,8,3.6,8
2020/8/27 11:24,2.6,7,2.7,8,4.3,6
2020/8/27 11:25,2.5,7,2.6,8,4.5,5
2020/8/27 11:26,2.5,7,2.6,8,7,8
2020/8/27 11:27,2.7,7,2.7,8,7.4,8
2020/8/27 11:28,2.9,7,2.9,8,7.7,7
2020/8/27 11:29,3.2,7,3.2,7,7.7,7
2020/8/27 11:30,3,7,3.2,7,6.1,6
2020/8/27 11:31,3.1,7,3.1,7,3.8,6
2020/8/27 11:32,3.5,7,3.5,7,7.5,6
2020/8/27 11:33,3.7,7,3.7,7,6.4,7
2020/8/27 11:34,3.7,7,3.7,7,5.4,8
2020/8/27 11:35,3.7,7,3.7,7,4.8,6
2020/8/27 11:36,3.7,7,3.8,7,4.1,6
2020/8/27 11:37,3.5,7,3.7,7,3.6,7
2020/8/27 11:38,3.2,7,3.4,7,3.9,8
2020/8/27 11:39,2.9,7,3.1,7,3.9,8
2020/8/27 11:40,2.7,7,2.8,7,3.7,10
2020/8/27 11:41,2.9,7,2.9,7,6.5,8
2020/8/27 11:42,2.7,8,2.9,7,5,8
2020/8/27 11:43,2.8,7,2.8,7,7.4,7
2020/8/27 11:44,2.8,7,2.9,7,6.8,6
2020/8/27 11:45,2.9,7,2.9,7,5.1,8
2020/8/27 11:46,2.9,8,2.9,7,5.8,8
2020/8/27 11:47,3,7,3,7,5.1,6
2020/8/27 11:48,3.2,8,3.2,8,6.3,7
2020/8/27 11:49,3.2,8,3.2,8,4.2,8